Location: Brodeslavy
(49.9527°N, 13.5567°E)
Time: 20:25:25
(UTC+00:00)

TIMED - Pass Details

Date: 17 June 2025
Orbit: 585 x 586 km, 74.1° (Epoch: 16 July)

Event Time Altitude Azimuth Distance (km) Brightness Sun altitude
Exits shadow 23:10:20 30° 206° (SSW) 1,057 5.2 -16.6°
Maximum altitude 23:12:23 85° 295° (WNW) 595 4.4 -16.6°
Drops below altitude 10° 23:16:41 10° 23° (NNE) 1,920 8.2 -16.6°
Sets 23:18:55 0° 24° (NNE) 2,826 9.3 -16.6°
